{"data":{"norad_id":69260,"intl_designator":"2026-117Y","name":"STARLINK-37478","alt_names":[],"object_type":"PAYLOAD","status":"ACTIVE","operator":null,"country":"US","launch_date":"2026-05-29","launch_site_code":"AFETR","launch_vehicle":null,"mission":null,"orbit_class":"UNKNOWN","rcs_meters":null,"size_class":null,"mass_kg":null,"dimensions":null,"purposes":["comms"],"wikipedia_slug":null,"has_3d_model":false,"image_url":null,"decayed_at":null,"tle_current":{"epoch":"2026-09-19T04:46:15.899232Z","epoch_age_seconds":139435,"freshness":"FRESH","line1":"1 69260U 26117Y   26262.19879513  .00017929  00000+0  54023-3 0  9995","line2":"2 69260  53.1566 160.0920 0001143  98.9833 261.1299 15.34415453 17461","mean_motion":15.34415453,"eccentricity":0.0001143,"inclination_deg":53.1566,"raan_deg":160.092,"arg_perigee_deg":98.9833,"mean_anomaly_deg":261.1299,"bstar":0.00054023,"rev_number":1746,"period_min":93.846812946559,"perigee_km":461.87540823025,"apogee_km":463.43921380974,"semimajor_km":6840.79431102,"source":"CELESTRAK","updated_at":"2026-09-20T09:00:44.152194Z"}}}